Location: Ash Swamp
(41.5170°N, 74.6157°W)
Time: 02:48:12
(UTC+00:00)

Cosmos 1110 Rocket - Pass Details

Date: 14 July 2020
Orbit: 752 x 782 km, 74.0° (Epoch: 14 August)

Event Time Altitude Azimuth Distance (km) Brightness Sun altitude
Rises 04:38:14 0° 336° (NNW) 3,261 8.4 -26.6°
Reaches altitude 10° 04:40:39 10° 332° (NNW) 2,334 7.4 -26.6°
Enters shadow 04:45:40 57° 264° (W) 914 4.3 -26.7°
